Location: *
(50.9167°S, 179.4000°W)
Time: 20:28:13
(UTC+00:00)

USA 234 - Pass Details

Date: 03 March 2024
Orbit: 1099 x 1109 km, 123.0° (Epoch: 13 February)

Event Time Altitude Azimuth Distance (km) Brightness Sun altitude
Exits shadow 12:31:54 74° 243° (WSW) 1,165 3.3 -32.4°
Drops below altitude 10° 12:37:52 10° 239° (WSW) 3,001 5.8 -32.2°
Sets 12:40:22 0° 239° (WSW) 3,961 6.4 -32.2°
